Simultaneous Nadir Overpasses (SNOs) Predictions

Prediction of SNOs between AQUA and NOAA-19 Satellite Orbit:

Table of predicted SNOs for the next 14.0 days since TLE Epoch: 8/12/2016
Index Date (AQUA) Time (AQUA) Lat,Lon (AQUA) SZA (AQUA ) Date (NOAA-19) Time (NOAA-19) Lat,Lon (NOAA-19) SZA (NOAA-19 ) Distance(km) Time Diff (sec)
1 08/14/2016 13:29:37 80.90, -62.10 69.06 08/14/2016 13:28:29 80.90, -62.14 69.10 0.75 68
2 08/14/2016 14:19:03 -80.88, 105.78 110.98 08/14/2016 14:19:31 -80.88, 105.84 110.99 1.06 28
3 08/16/2016 19:03:21 -80.91, 34.31 110.23 08/16/2016 19:02:34 -80.90, 34.29 110.21 0.79 47
4 08/16/2016 19:52:46 80.88,-157.60 69.71 08/16/2016 19:53:29 80.88,-157.54 69.69 1.28 43
5 08/19/2016 00:37:04 80.91, 130.86 70.48 08/19/2016 00:36:32 80.91, 130.69 70.51 3.06 32
6 08/19/2016 01:26:30 -80.89, -61.22 109.56 08/19/2016 01:27:35 -80.89, -61.34 109.58 2.05 65
7 08/21/2016 06:10:47 -80.90,-132.43 108.83 08/21/2016 06:10:37 -80.90,-132.59 108.81 2.80 10
8 08/23/2016 11:44:30 80.91, -35.98 71.93 08/23/2016 11:44:33 80.90, -35.82 71.90 3.20 3
9 08/25/2016 16:28:46 80.90,-106.94 72.65 08/25/2016 16:27:34 80.91,-106.90 72.68 1.00 72




NCC Satellite Simultaneous Nadir Overpasses (SNOs) Prediction Service
